Regional Weather Roundup
Issued by NWS

Home | Current Version | Previous Version | Text Only | Print | Product List | Glossary Off
Versions: 1 2 3 4 5 6 7 8 9 10 11 12 13 14 15 16 17 18 19 20 21 22 23 24 25 26 27 28 29 30 31 32 33 34 35 36 37 38 39 40 41 42 43 44 45 46 47 48 49 50

000
ASUS45 KPSR 010710
RWRAZ

ARIZONA REGIONAL HOURLY WEATHER ROUNDUP
NATIONAL WEATHER SERVICE PHOENIX AZ
1200 AM MST FRI AUG 01 2014

NOTE: FAIR INDICATES FEW OR NO CLOUDS BELOW 12,000 FEET WITH NO
SIGNIFICANT WEATHER AND/OR OBSTRUCTIONS TO VISIBILITY.

AZZ001>003-036-010800-
NORTHWEST ARIZONA

CITY           SKY/WX    TMP DP  RH WIND       PRES   REMARKS
BULLHEAD CITY  PTCLDY   102  54  19 SE16      29.77S HX 100
KINGMAN        CLOUDY    83  50  31 SE10      30.03S
$$

AZZ004>008-015-016-018-010800-
NORTH CENTRAL ARIZONA

CITY           SKY/WX    TMP DP  RH WIND       PRES   REMARKS
GRAND CANYON   MOCLDY    54  51  90 CALM      30.32S
WILLIAMS       CLOUDY    59  52  77 S6        30.38S
PRESCOTT       CLOUDY    72  54  53 SW12G17   30.20S
FLAGSTAFF      CLOUDY    56  54  93 E3        30.35S
PAYSON         CLOUDY    72  50  46 CALM      30.22F
PAGE           CLOUDY    79  49  34 W10G24    30.16R
$$

AZZ009>014-017-010800-
NORTHEAST ARIZONA

CITY           SKY/WX    TMP DP  RH WIND       PRES   REMARKS
WINSLOW        CLOUDY    70  50  49 SE6       30.19F
SAINT JOHNS    CLOUDY    67  58  72 E5        30.24F
WINDOW ROCK    CLOUDY    63  54  72 SE7       30.35R
SHOW LOW       CLOUDY    61  54  77 CALM      30.32F
$$

AZZ023-010800-
GREATER PHOENIX AREA

CITY           SKY/WX    TMP DP  RH WIND       PRES   REMARKS
PHOENIX        TSTM      89  64  43 NW16      29.92R
LUKE AFB       NOT AVBL
DEER VALLEY    CLOUDY    87  60  40 W8        29.92S
SCOTTSDALE     CLOUDY    88  60  38 W7        29.94R
MESA-GATEWAY   MOCLDY    93  55  27 NW10      29.93R
$$

AZZ027-028-010800-
SOUTHWEST MARICOPA COUNTY AND PINAL COUNTY

CITY           SKY/WX    TMP DP  RH WIND       PRES   REMARKS
CASA GRANDE    CLOUDY    82  66  57 W16       29.94R
$$

AZZ503-504-507>509-010800-
SOUTHEAST ARIZONA

CITY           SKY/WX    TMP DP  RH WIND       PRES   REMARKS
TUCSON         MOCLDY    88  57  34 CALM      30.01R
DAVIS-MONTHAN  MOCLDY    85  60  41 SW1       30.00R
NOGALES        MOCLDY    74  60  61 E3        30.10F
SIERRA VISTA   CLOUDY    73  63  68 SW6       30.16F
DOUGLAS        CLOUDY    70  62  76 S14       30.15R
SAFFORD        CLOUDY    76  60  57 NW10G22   30.12R
$$

AZZ020-021-025-026-031-010800-
SOUTHWEST ARIZONA

CITY           SKY/WX    TMP DP  RH WIND       PRES   REMARKS
YUMA           PTCLDY    93  67  42 S12       29.76F
$$

CAZ031-033-041-043-047-048-061-010800-
SOUTHERN CALIFORNIA

CITY           SKY/WX    TMP DP  RH WIND       PRES   REMARKS
DOWNTOWN L.A.  CLEAR     68  61  78 CALM      29.92S
L.A. AIRPORT   PTCLDY    68  62  81 W6        29.92S
SAN DIEGO      MOCLDY    70  63  78 W3        29.95S
BURBANK        CLEAR     69  60  73 E10       29.92R
ONTARIO        PTCLDY    75  59  57 SW6       29.94R
RIVERSIDE      CLEAR     74  62  66 W6        29.93R
PALM SPRINGS   CLEAR     97  55  24 NW5       29.82R
EL CENTRO NAS  PTCLDY    90  74  59 SE9       29.74S
IMPERIAL       PTCLDY    91  76  61 SE12      29.74S HX 103
BLYTHE           N/A    N/A N/A N/A MISG      29.78S
NEEDLES        PTCLDY   101  59  24 S20       29.80R HX 101
$$

NVZ020-UTZ003-010800-
SOUTHERN NEVADA-UTAH

CITY           SKY/WX    TMP DP  RH WIND       PRES   REMARKS
LAS VEGAS      PTCLDY    95  47  19 NE10      29.85R
SALT LAKE CITY MOCLDY    71  54  54 S3        30.13S
$$

NMZ009-TXZ055-010800-
NEW MEXICO-WEST TEXAS

CITY           SKY/WX    TMP DP  RH WIND       PRES   REMARKS
ALBUQUERQUE    CLOUDY    68  53  58 NE10G17   30.28S
EL PASO        LGT RAIN  71  64  78 S14       30.15S
$$


........................KEY........................
SKY/WX - SKY CONDITION/WEATHER
TMP    - TEMPERATURE IN FAHRENHEIT
DP     - DEW POINT IN FAHRENHEIT
RH     - RELATIVE HUMIDITY IN PERCENT
WIND   - DIRECTION AND SPEED IN MILES PER HOUR (MPH)
VRB    - VARIABLE WIND DIRECTION
PRES   - MEAN SEA LEVEL PRESSURE IN INCHES OF MERCURY
         F - FALLING PRESSURE   R - RISING PRESSURE
         S - STEADY PRESSURE
VSB    - VISIBILITY IN MILES
HX     - HEAT INDEX IN FAHRENHEIT
WCI    - WIND CHILL INDEX IN FAHRENHEIT
TC     - TEMPERATURE IN CELSIUS WHICH IS ALSO KNOWN AS
         TEMPERATURE IN CENTIGRADE
AFB    - AIR FORCE BASE
         LUKE AFB IS LUKE AIR FORCE BASE
         DAVIS-MONTHAN IS DAVIS-MONTHAN AIR FORCE BASE
NAS    - NAVAL AIR STATION
         EL CENTRO NAS IS EL CENTRO NAVAL AIR STATION
N/A    - NOT AVAILABLE



USA.gov is the U.S. government's official web portal to all federal, state and local government web resources and services.